Location: Absher
(46.5583°N, 107.9840°W)
Time: 03:31:52
(UTC+00:00)

TIGRISAT - Visible Passes

Search period start: 17 April 2024 00:00
Search period end: 27 April 2024 00:00
Orbit: 594 x 674 km, 97.7° (Epoch: 16 April)

Date Brightness Start Highest point End Pass type
(mag) Time Alt. Az. Time Alt. Az. Time Alt. Az.
17 Apr ? 10:44:35 10° SSE 10:48:56 55° ENE 10:53:14 10° N visible
18 Apr ? 09:33:14 10° E 09:34:50 12° ENE 09:36:23 10° NE visible
18 Apr ? 11:06:08 10° SSE 11:10:35 89° SW 11:14:59 10° NNW visible
19 Apr ? 09:53:14 10° ESE 09:56:14 18° ENE 09:59:12 10° NNE visible
19 Apr ? 11:27:56 10° S 11:32:17 54° W 11:36:34 10° NNW visible
20 Apr ? 10:13:57 10° SE 10:17:42 28° ENE 10:21:23 10° N visible
21 Apr ? 10:35:02 10° SE 10:39:13 44° ENE 10:43:20 10° N visible
22 Apr ? 10:56:23 10° SSE 11:00:47 73° ENE 11:05:05 10° N visible
23 Apr ? 09:44:01 10° E 09:46:28 15° ENE 09:48:52 10° NNE visible
23 Apr ? 11:18:01 10° S 11:22:23 67° WSW 11:26:42 10° NNW visible
24 Apr ? 10:04:26 10° ESE 10:07:50 23° ENE 10:11:12 10° NNE visible
25 Apr ? 10:25:18 10° SE 10:29:16 35° ENE 10:33:11 10° N visible
26 Apr ? 10:46:29 10° SSE 10:50:45 58° ENE 10:54:58 10° N visible
